Tracking 25734 objects as of 26-May-2022
HD Live streaming from Space Station
objects crossing your sky now

COSMOS 2251 DEB

Track COSMOS 2251 DEB now!
10-day predictions


NORAD ID: 34787
Int'l Code: 1993-036AAQ
Perigee: 638.7 km
Apogee: 664.5 km
Inclination: 74.0 °
Period: 97.6 minutes
Semi major axis: 7022 km
RCS: 0.0014 m2 (small)
Launch date: June 16, 1993
Source: Commonwealth of Independent States (former USSR) (CIS)
Launch site: PLESETSK MISSILE AND SPACE COMPLEX (PKMTR)

Note: This is SATELLITE DEBRIS
aabbcc
Your satellite tracking list
Your tracking list is empty




NASA's NSSDC Master Catalog

Two Line Element Set (TLE):
1 34787U 93036AAQ 22145.44709127  .00015706  00000-0  23158-2 0  9998
2 34787  74.0133 160.3835 0018372 261.1906  98.7187 14.75219494703872
Source of the keplerian elements: AFSPC